Point Mugu, CA

7:50 AM PDT on April 25, 2017 (GMT -0700)
Point Mugu Naval Air Station

Weather History for KNTD - September, 2014

Change the Weather History Date:

Tuesday, September 9, 2014

  Actual Average Record
Temperature  
Mean Temperature 70 °F -  
Max Temperature 82 °F 71 °F 90 °F (2015)
Min Temperature 59 °F 57 °F 33 °F (1996)
Cooling Degree Days 6    
Growing Degree Days 20 (Base 50)    
Moisture  
Dew Point 60 °F    
Average Humidity 74    
Maximum Humidity 87    
Minimum Humidity 48    
Precipitation  
Precipitation 0.00 in - - ()
Sea Level Pressure  
Sea Level Pressure 29.90 in    
Wind  
Wind Speed 4 mph (NW)    
Max Wind Speed 13 mph    
Max Gust Speed 24 mph    
Visibility 7 miles    
Events Fog    
Averages and records for this station are not official NWS values.
T = Trace of Precipitation, MM = Missing Value Source: NWS Daily Summary

Daily Weather History Graph

Daily Weather History Graph

Search for Another Location

Airport or City:

Trip Planner

Search our weather history database for the weather conditions in past years. The results will help you decide how hot, cold, wet, or windy it might be!

Date:

Astronomy

Sep. 09, 2014 Rise Set
Actual Time 6:35 AM PDT 7:11 PM PDT
Civil Twilight 6:10 AM PDT 7:36 PM PDT
Nautical Twilight 5:40 AM PDT 8:06 PM PDT
Astronomical Twilight 5:10 AM PDT 8:36 PM PDT
Moon 7:38 PM PDT (9/9) 7:14 AM PDT (9/9)
Length of Visible Light 13h 26m
Length of Day
12h 35m
Full, 99% of the Moon is Illuminated
Sep 9
Full
Sep 15
Last Quarter
Sep 23
New
Oct 1
First Quarter
Oct 8
Full

Hourly Weather History & Observations

Time (PDT) Temp. Heat Index Dew Point Humidity Pressure Visibility Wind Dir Wind Speed Gust Speed Precip Events Conditions
12:56 AM 66.9 °F - 62.1 °F 84% 29.89 in 8.0 mi NW 3.5 mph - N/A   Clear
1:56 AM 66.0 °F - 61.0 °F 84% 29.89 in 6.0 mi NW 4.6 mph - N/A   Haze
2:56 AM 66.0 °F - 61.0 °F 84% 29.90 in 6.0 mi NNW 3.5 mph - N/A   Haze
3:26 AM 63.0 °F - 59.0 °F 87% 29.89 in 1.5 mi Calm Calm - N/A   Clear
3:29 AM 63.0 °F - 59.0 °F 87% 29.89 in 0.8 mi Calm Calm - N/A   Clear
3:38 AM 63.0 °F - 59.0 °F 87% 29.89 in 1.0 mi Calm Calm - N/A   Mist
3:50 AM 64.4 °F - 59.0 °F 83% 29.89 in 2.0 mi Calm Calm - N/A   Haze
3:56 AM 63.0 °F - 59.0 °F 87% 29.90 in 0.8 mi Calm Calm - N/A   Mist
4:04 AM 63.0 °F - 59.0 °F 87% 29.89 in 0.5 mi Calm Calm - N/A Fog Fog
4:13 AM 64.0 °F - 60.1 °F 87% 29.89 in 1.0 mi NE 3.5 mph - N/A   Mist
4:20 AM 64.0 °F - 60.1 °F 87% 29.89 in 2.0 mi NNE 3.5 mph - N/A   Scattered Clouds
4:30 AM 64.0 °F - 59.0 °F 84% 29.89 in 7.0 mi NNE 4.6 mph - N/A   Partly Cloudy
4:56 AM 63.0 °F - 59.0 °F 87% 29.90 in 7.0 mi NE 3.5 mph - N/A   Clear
5:56 AM 59.0 °F - 55.0 °F 87% 29.91 in 7.0 mi NNE 3.5 mph - N/A   Partly Cloudy
6:56 AM 60.1 °F - 55.9 °F 86% 29.93 in 5.0 mi North 5.8 mph - N/A   Partly Cloudy
7:56 AM 66.9 °F - 59.0 °F 76% 29.94 in 9.0 mi NNW 4.6 mph - N/A   Clear
8:56 AM 75.0 °F - 61.0 °F 62% 29.94 in 9.0 mi North 3.5 mph - N/A   Clear
9:56 AM 80.1 °F 80.9 °F 60.1 °F 50% 29.93 in 10.0 mi SW 3.5 mph - N/A   Partly Cloudy
10:56 AM 80.1 °F 81.1 °F 61.0 °F 52% 29.93 in 10.0 mi WSW 8.1 mph - N/A   Partly Cloudy
11:56 AM 80.1 °F 81.2 °F 62.1 °F 54% 29.93 in 10.0 mi WSW 11.5 mph - N/A   Clear
12:56 PM 82.0 °F 83.0 °F 62.1 °F 51% 29.92 in 10.0 mi West 11.5 mph 24.2 mph N/A   Partly Cloudy
1:56 PM 82.0 °F 83.0 °F 62.1 °F 51% 29.90 in 10.0 mi West 12.7 mph - N/A   Partly Cloudy
2:56 PM 82.0 °F 82.7 °F 61.0 °F 49% 29.89 in 10.0 mi West 12.7 mph - N/A   Partly Cloudy
3:56 PM 80.1 °F 80.7 °F 59.0 °F 48% 29.88 in 10.0 mi West 11.5 mph - N/A   Partly Cloudy
4:56 PM 78.1 °F - 60.1 °F 54% 29.87 in 10.0 mi West 12.7 mph - N/A   Partly Cloudy
5:56 PM 75.9 °F - 59.0 °F 56% 29.87 in 10.0 mi West 11.5 mph - N/A   Partly Cloudy
6:56 PM 71.1 °F - 61.0 °F 70% 29.86 in 10.0 mi Calm Calm - N/A   Partly Cloudy
7:56 PM 68.0 °F - 60.1 °F 76% 29.86 in 10.0 mi NW 5.8 mph - N/A   Partly Cloudy
8:56 PM 66.9 °F - 61.0 °F 81% 29.88 in 10.0 mi NW 6.9 mph - N/A   Partly Cloudy
9:56 PM 66.9 °F - 60.1 °F 79% 29.88 in 10.0 mi NNW 4.6 mph - N/A   Clear
10:56 PM 64.9 °F - 59.0 °F 81% 29.89 in 9.0 mi Calm Calm - N/A   Clear
11:56 PM 63.0 °F - 59.0 °F 87% 29.90 in 5.0 mi Calm Calm - N/A   Clear